Track RESURS DK-1 now! 10-day predictions RESURS DK-1 is classified as:
1 29228U 06021A 24325.69066170 .00004128 00000-0 26679-3 0 9991 2 29228 69.9358 19.8805 0002571 175.8163 184.3023 15.09024094 15924